Location: Pitton
(51.0667°N, 1.7000°W)
Time: 23:06:48
(UTC+00:00)

Cosmos 2263 Rocket - Pass Details

Date: 17 September 2019
Orbit: 824 x 848 km, 71.0° (Epoch: 21 October)

Event Time Altitude Azimuth Distance (km) Brightness Sun altitude
Exits shadow 23:23:20 32° 19° (NNE) 1,436 3.7 -36.3°
Drops below altitude 10° 23:26:17 10° 27° (NNE) 2,480 5.1 -36.3°
Sets 23:28:46 0° 30° (NNE) 3,416 6.0 -36.4°
